Location: Roah Hook
(42.4840°N, 73.7893°W)
Time: 09:55:45
(UTC+00:00)

NOAA 15 - Visible Passes

Search period start: 09 December 2025 00:00
Search period end: 19 December 2025 00:00
Orbit: 794 x 809 km, 98.5° (Epoch: 08 December)

Date Brightness Start Highest point End Pass type
(mag) Time Alt. Az. Time Alt. Az. Time Alt. Az.
09 Dec 6.4 11:41:51 10° NNE 11:46:43 37° E 11:51:32 10° SSE visible
09 Dec 4.5 23:01:45 10° SSE 23:06:57 61° ENE 23:12:10 10° N visible
10 Dec 7.2 00:43:39 10° SW 00:47:05 17° W 00:50:31 10° NW visible
10 Dec 7.3 11:16:19 10° NE 11:20:19 22° E 11:24:18 10° SE visible
10 Dec 5.1 22:36:07 10° SE 22:40:55 36° ENE 22:45:43 10° N visible
11 Dec 6.4 00:16:04 10° SSW 00:20:39 29° W 00:25:15 10° NW visible
11 Dec 7.7 10:51:44 10° ENE 10:53:50 12° E 10:55:55 10° ESE visible
11 Dec 5.7 22:10:57 10° ESE 22:14:57 22° ENE 22:18:58 10° NNE visible
11 Dec 5.4 23:49:12 10° S 23:54:19 51° W 23:59:28 10° NNW visible
12 Dec 6.2 21:46:34 10° E 21:49:07 14° ENE 21:51:40 10° NNE visible
12 Dec 4.5 23:22:48 10° SSE 23:28:05 87° WSW 23:33:24 10° NNW visible
13 Dec 7.7 01:07:35 10° W 01:08:32 10° W 01:09:29 10° WNW visible
13 Dec 6.5 11:36:55 10° NNE 11:41:40 34° E 11:46:22 10° SSE visible
13 Dec 4.6 22:56:49 10° SSE 23:01:58 55° ENE 23:07:07 10° N visible
14 Dec 7.1 00:38:18 10° SW 00:42:01 19° W 00:45:43 10° NW visible
14 Dec 7.4 11:11:29 10° NE 11:15:16 20° E 11:19:00 10° SE visible
14 Dec 5.2 22:31:16 10° SE 22:35:56 33° ENE 22:40:37 10° N visible
15 Dec 6.2 00:10:54 10° SSW 00:15:36 32° W 00:20:20 10° NNW visible
15 Dec 7.9 10:47:26 10° ENE 10:48:44 11° E 10:50:03 10° ESE visible
15 Dec 5.8 22:06:12 10° ESE 22:10:00 20° ENE 22:13:48 10° NNE visible
15 Dec 5.2 23:44:07 10° S 23:49:18 56° W 23:54:30 10° NNW visible
16 Dec 4.5 23:17:47 10° SSE 23:23:05 85° ENE 23:28:23 10° NNW visible
17 Dec 7.6 01:01:33 10° WSW 01:03:27 12° W 01:05:20 10° WNW visible
17 Dec 6.7 11:32:00 10° NE 11:36:36 30° E 11:41:10 10° SSE visible
17 Dec 4.7 22:51:53 10° SE 22:56:58 50° ENE 23:02:03 10° N visible
18 Dec 6.9 00:33:00 10° SW 00:36:57 21° W 00:40:54 10° NW visible
18 Dec 7.4 11:06:41 10° NE 11:10:11 18° E 11:13:38 10° SE visible
18 Dec 5.3 22:26:25 10° SE 22:30:57 30° ENE 22:35:29 10° N visible
